Regional Weather Roundup
Issued by NWS

Home | Current Version | Previous Version | Graphics & Text | Print | Product List | Glossary Off
Versions: 1 2 3 4 5 6 7 8 9 10 11 12 13 14 15 16 17 18 19 20 21 22 23 24 25 26 27 28 29 30 31 32 33 34 35 36 37 38 39 40 41 42 43 44 45 46 47 48 49 50

000
ASUS43 KTOP 021159
RWRKS

WEATHER ROUNDUP FOR KANSAS
NATIONAL WEATHER SERVICE GOODLAND KS
700 AM CDT WED SEP 02 2015

NOTE:  "FAIR" INDICATES FEW OR NO CLOUDS BELOW 12,000 FEET WITH NO
SIGNIFICANT WEATHER AND/OR OBSTRUCTIONS TO VISIBILITY.

KSZ001>006-013>018-027>032-041>047-021300-
NORTHWEST KANSAS

CITY           SKY/WX    TMP DP  RH WIND       PRES   REMARKS
GOODLAND       CLEAR     62  56  80 SW7       29.97S
6HR MIN TEMP:  60; 6HR MAX TEMP:  73;

HAYS           CLEAR     72  55  56 S15       29.93R
HILL CITY      CLEAR     71  57  61 SW6       29.91R
6HR MIN TEMP:  71; 6HR MAX TEMP:  81;

RUSSELL        CLEAR     74  60  61 S15       29.92R
6HR MIN TEMP:  74; 6HR MAX TEMP:  79;

$$

KSZ061>065-074>080-084>089-021300-
SOUTHWEST KANSAS

CITY           SKY/WX    TMP DP  RH WIND       PRES   REMARKS
DODGE CITY     CLEAR     68  57  68 S9        29.98S
6HR MIN TEMP:  68; 6HR MAX TEMP:  76;

ELKHART          N/A     67  54  63 SW10        N/A
GARDEN CITY    CLEAR     62  56  80 SE8       29.96F
6HR MIN TEMP:  62; 6HR MAX TEMP:  74;

GREAT BEND     CLEAR     73  59  60 S15       29.95R
LIBERAL        PTCLDY    73  54  49 S15       29.99F
$$

KSZ066>073-081>083-090>101-021300-
SOUTHEAST KANSAS

CITY           SKY/WX    TMP DP  RH WIND       PRES   REMARKS
CHANUTE        CLEAR     69  66  90 S9        30.04R
6HR MIN TEMP:  68; 6HR MAX TEMP:  72;

COFFEYVILLE    CLEAR     68  67  96 SE7       30.04R
6HR MIN TEMP:  68; 6HR MAX TEMP:  72;

HUTCHINSON     MOCLDY    75  62  64 S12       29.98R
6HR MIN TEMP:  74; 6HR MAX TEMP:  79;

NEWTON         CLEAR     73  59  60 S15       30.01S
PARSONS        CLEAR     69  67  93 S3        30.05R
6HR MIN TEMP:  69; 6HR MAX TEMP:  73;

WICHITA INTL   MOCLDY    71  63  75 S10       29.99S
6HR MIN TEMP:  71; 6HR MAX TEMP:  78;

WICHITA JABRA  CLEAR     73  63  70 S10       30.00R
6HR MIN TEMP:  73; 6HR MAX TEMP:  76;

WINFIELD       CLEAR     72  64  76 S12       30.02S
6HR MIN TEMP:  72; 6HR MAX TEMP:  76;

$$

KSZ007>012-019>026-033>040-048>060-102>105-021300-
NORTHEAST KANSAS

CITY           SKY/WX    TMP DP  RH WIND       PRES   REMARKS
CONCORDIA      CLEAR     73  63  70 S13       29.91S
6HR MIN TEMP:  73; 6HR MAX TEMP:  78;

EMPORIA        PTCLDY    70  65  84 S12       29.99R
6HR MIN TEMP:  70; 6HR MAX TEMP:  74;

LAWRENCE       MOCLDY    71  66  84 SE5       30.00R
6HR MIN TEMP:  70; 6HR MAX TEMP:  73;

MANHATTAN      MOCLDY    77  65  66 S13       29.94S
6HR MIN TEMP:  76; 6HR MAX TEMP:  80;

OLATHE IND     MOCLDY    71  66  84 S12       30.02R
6HR MIN TEMP:  70; 6HR MAX TEMP:  73;

OLATHE EXE     MOCLDY    70  66  87 S8        30.02R
6HR MIN TEMP:  69; 6HR MAX TEMP:  71;

SALINA         PTCLDY    77  62  59 S14       29.93R
6HR MIN TEMP:  77; 6HR MAX TEMP:  81;

TOPEKA BILLARD CLOUDY    75  66  73 S5        29.98R
6HR MIN TEMP:  74; 6HR MAX TEMP:  78;

TOPEKA FORBES  CLOUDY    75  66  73 S9        29.99R
6HR MIN TEMP:  74; 6HR MAX TEMP:  77;

$$



USA.gov is the U.S. government's official web portal to all federal, state and local government web resources and services.